STARLINK-37294

Last updated on Sun Apr 12 2026 00:02:10 GMT+0000 (Coordinated Universal Time)

1 68559U 26070T 26101.50002315 -.01155151 41945-3 -25540-2 0 9999 2 68559 53.1584 220.2002 0000965 55.1259 149.2527 15.97348160 2653
UTC large
Height (km)
Speed (km/s)
/
Latitude / Longitude
Inclination (degrees)
Orbital Period (minutes)
Azimuth
Elevation
Range (km)
Doppler Factor

Next 0 passes for location: London (51.5072 / 0.1276)

Sorry there are no passes over London.
STARLINK-37294